TimeCDT,TemperatureF,Dew PointF,Humidity,Sea Level PressureIn,VisibilityMPH,Wind Direction,Wind SpeedMPH,Gust SpeedMPH,PrecipitationIn,Events,Conditions,WindDirDegrees,DateUTC
12:54 AM,46.9,43.0,86,30.14,10.0,Calm,Calm,-,N/A,,Clear,0,2012-10-09 05:54:00
1:54 AM,46.0,42.1,86,30.15,10.0,Calm,Calm,-,N/A,,Clear,0,2012-10-09 06:54:00
2:54 AM,46.0,42.1,86,30.13,10.0,SSW,3.5,-,N/A,,Clear,210,2012-10-09 07:54:00
3:54 AM,46.0,41.0,83,30.12,10.0,Calm,Calm,-,N/A,,Clear,0,2012-10-09 08:54:00
4:54 AM,45.0,41.0,86,30.13,10.0,Calm,Calm,-,N/A,,Partly Cloudy,0,2012-10-09 09:54:00
5:54 AM,45.0,41.0,86,30.14,10.0,Calm,Calm,-,N/A,,Scattered Clouds,0,2012-10-09 10:54:00
6:54 AM,46.0,41.0,83,30.15,10.0,Calm,Calm,-,N/A,,Scattered Clouds,0,2012-10-09 11:54:00
7:54 AM,48.0,41.0,77,30.15,10.0,Calm,Calm,-,N/A,,Scattered Clouds,0,2012-10-09 12:54:00
8:54 AM,53.1,43.0,69,30.16,10.0,Calm,Calm,-,N/A,,Scattered Clouds,0,2012-10-09 13:54:00
9:54 AM,57.0,44.1,62,30.16,10.0,South,4.6,-,N/A,,Partly Cloudy,190,2012-10-09 14:54:00
10:54 AM,59.0,43.0,55,30.16,10.0,SSW,6.9,-,N/A,,Partly Cloudy,210,2012-10-09 15:54:00
11:54 AM,61.0,43.0,52,30.14,10.0,South,8.1,-,N/A,,Scattered Clouds,190,2012-10-09 16:54:00
12:54 PM,63.0,45.0,52,30.10,10.0,SSW,8.1,17.3,N/A,,Partly Cloudy,200,2012-10-09 17:54:00
1:54 PM,64.9,45.0,48,30.06,10.0,SSW,9.2,16.1,N/A,,Clear,210,2012-10-09 18:54:00
2:54 PM,66.9,45.0,45,30.04,10.0,South,9.2,-,N/A,,Clear,170,2012-10-09 19:54:00
3:54 PM,66.9,45.0,45,30.02,10.0,SSW,9.2,17.3,N/A,,Clear,200,2012-10-09 20:54:00
4:54 PM,66.9,45.0,45,30.00,10.0,SSW,11.5,-,N/A,,Partly Cloudy,210,2012-10-09 21:54:00
5:54 PM,64.9,45.0,48,29.99,10.0,SSW,6.9,-,N/A,,Partly Cloudy,210,2012-10-09 22:54:00
6:54 PM,61.0,46.0,58,29.99,10.0,South,5.8,-,N/A,,Partly Cloudy,180,2012-10-09 23:54:00
7:54 PM,60.1,48.0,64,30.01,10.0,SSW,4.6,-,N/A,,Mostly Cloudy,210,2012-10-10 00:54:00
8:54 PM,61.0,46.9,60,30.01,10.0,SSE,5.8,-,N/A,,Mostly Cloudy,160,2012-10-10 01:54:00
9:54 PM,61.0,48.9,64,30.04,10.0,SW,3.5,-,N/A,,Overcast,220,2012-10-10 02:54:00
10:54 PM,61.0,48.9,64,30.04,10.0,SSW,4.6,-,N/A,,Overcast,200,2012-10-10 03:54:00
11:23 PM,60.8,48.2,63,30.06,10.0,West,3.5,-,N/A,,Overcast,260,2012-10-10 04:23:00
11:54 PM,61.0,48.9,64,30.05,10.0,SW,3.5,-,N/A,,Overcast,220,2012-10-10 04:54:00